Location: Three Oaks Observatory
(31.1535°N, 83.5955°W)
Time: 01:47:17
(UTC-05:00)

Hubble Space Telescope - Pass Details

Date: 24 September 2018
Orbit: 537 x 540 km, 28.5° (Epoch: 14 December)

Event Time Altitude Azimuth Distance (km) Brightness Sun altitude
Rises 21:08:53 0° 270° (W) 2,671 5.7 -22.2°
Reaches altitude 10° 21:11:18 10° 260° (W) 1,779 4.3 -22.7°
Enters shadow 21:14:52 32° 200° (SSW) 935 2.0 -23.4°
